EST,Max TemperatureF,Mean TemperatureF,Min TemperatureF,Max Dew PointF,MeanDew PointF,Min DewpointF,Max Humidity, Mean Humidity, Min Humidity, Max Sea Level PressureIn, Mean Sea Level PressureIn, Min Sea Level PressureIn, Max VisibilityMiles, Mean VisibilityMiles, Min VisibilityMiles, Max Wind SpeedMPH, Mean Wind SpeedMPH, Max Gust SpeedMPH,PrecipitationIn, CloudCover, Events, WindDirDegrees
2013-11-1,62,54,46,57,44,37,86,74,61,29.67,29.44,29.10,10,9,3,32,14,43,0.06,8,Rain,247
2013-11-2,47,41,35,45,40,31,93,85,76,30.14,29.81,29.65,10,8,3,16,8,21,0.21,7,Rain,340
2013-11-3,45,36,27,36,30,27,92,75,58,30.47,30.34,30.15,10,9,2,12,5,14,0.00,3,,99
2013-11-4,51,41,30,34,28,23,82,59,35,30.48,30.41,30.29,10,10,10,22,11,26,0.00,0,,141
2013-11-5,57,52,47,46,41,35,77,68,59,30.35,30.29,30.15,10,10,9,13,8,18,0.00,7,,191
2013-11-6,57,50,42,52,46,37,86,71,55,30.12,29.90,29.76,10,8,3,28,14,37,0.27,8,Rain,228
2013-11-7,43,39,34,38,31,25,85,67,49,30.15,30.09,30.00,10,10,8,21,12,28,0.03,8,Rain,288
2013-11-8,46,37,28,29,25,23,85,63,41,30.29,30.22,30.13,10,10,10,15,7,18,0.00,4,,235
2013-11-9,56,46,36,39,33,28,75,61,46,30.16,29.92,29.79,10,10,10,28,15,40,0.00,5,,222
2013-11-10,49,41,32,34,30,26,75,61,46,30.28,30.11,29.91,10,10,10,28,14,36,T,6,Rain,276
2013-11-11,43,36,28,37,29,18,92,77,62,30.34,30.13,30.03,10,7,1,23,11,30,0.17,7,Rain-Snow,296
2013-11-12,35,28,21,21,16,13,81,64,47,30.56,30.50,30.37,10,10,10,22,10,28,T,3,,311
2013-11-13,41,30,19,23,16,11,84,60,35,30.55,30.37,30.14,10,10,10,22,12,29,0.00,0,,224
2013-11-14,53,43,32,26,20,17,54,44,34,30.15,30.05,29.95,10,10,10,21,12,26,0.00,0,,226
2013-11-15,54,47,39,28,24,22,57,46,35,30.06,30.01,29.98,10,10,10,16,9,23,0.00,2,,214
2013-11-16,58,47,35,52,40,28,89,73,57,30.10,29.98,29.77,10,9,4,22,12,30,0.02,4,Rain,175
2013-11-17,64,54,44,59,53,38,87,79,71,29.74,29.47,29.18,10,9,1,43,18,60,0.71,8,Rain-Thunderstorm,198
2013-11-18,47,41,35,38,28,22,71,64,56,30.14,29.79,29.47,10,10,10,36,20,47,T,8,,278
2013-11-19,42,34,26,22,20,19,75,58,41,30.43,30.33,30.16,10,10,10,17,6,23,0.00,3,,345
2013-11-20,46,35,23,31,25,20,85,61,37,30.47,30.37,30.25,10,10,10,22,8,28,0.00,0,,126
2013-11-21,50,45,40,43,36,26,92,73,53,30.28,30.23,30.18,10,9,4,15,7,21,0.13,8,Rain,189
2013-11-22,45,35,25,43,36,21,92,78,64,30.38,30.22,30.13,10,6,1,21,9,26,0.05,6,Rain-Snow,300
2013-11-23,28,23,17,22,15,6,81,64,46,30.53,30.37,30.26,10,9,0,29,14,36,T,5,Snow,290
2013-11-24,26,20,13,12,9,5,80,63,45,30.61,30.54,30.40,10,10,10,18,10,24,0.00,3,,276
2013-11-25,34,27,20,25,13,4,78,55,32,30.39,30.18,30.05,10,10,7,24,13,32,0.00,5,,217
2013-11-26,33,31,29,28,26,23,85,79,72,30.08,30.00,29.93,10,7,2,16,8,20,T,8,Snow,234
2013-11-27,29,22,15,24,13,7,80,63,46,30.21,30.03,29.93,10,9,2,23,12,30,T,5,Snow,323
2013-11-28,28,21,14,19,16,10,84,70,55,30.45,30.31,30.22,10,7,1,9,3,13,0.02,7,Snow,177
2013-11-29,32,25,17,21,18,14,92,76,59,30.69,30.59,30.41,10,9,5,9,2,12,0.00,4,,120
2013-11-30,45,36,26,27,24,20,75,60,45,30.54,30.29,30.09,10,10,8,15,9,20,0.00,3,,185